Powrót do katalogu

COSMOS 1827

AktywnyNawigacjaPO
NORAD 17582·PAYLOAD·🇷🇺 Russia

Wystrzelony Mar 13, 1987 z Plesetsk Cosmodrome

Loading…

Następne Przeloty (najbliższe 24 godziny)

TLE

ŚwieżeSource: Space-Track

Epoka: Sep 14, 2026, 22:34 UTC

1 17582U 87026A   26257.94094165  .00000035  00000-0  13087-3 0  9996
2 17582  82.5698 134.4813 0011695 316.4250  43.5919 12.65019730823996

Śledź COSMOS 1827 w czasie rzeczywistym z AllMySat

Download on the App Store